Dewpoint
49 50 50 50 50 51 50 50 50 50 49 49 49 49 50 50 50 50 50 51 51 51 52 52 52 52 52 52 52 52 53 48 46 42 40 36 49 59 57 58 58 59 59 42 41 38 37 35 32 30 22 15 10 10 17 16 17 11 12 9 8 2 -3 -6 -4 -7 4 4 10 11 10 9 6 11 11 14 19 30 36 36 51 53 57 58 63 62 63 65
50 49 49 50 50 50 50 50 50 49 49 49 49 49 50 50 50 51 51 51 51 51 51 52 52 52 52 52 53 52 50 47 44 42 38 51 59 58 59 57 58 58 57 39 38 33 31 30 29 25 22 15 12 8 16 11 16 12 9 7 6 2 5 3 3 4 2 6 10 10 10 9 6 10 12 12 21 22 24 37 48 51 56 57 61 62 64 66
51 50 50 51 50 50 50 49 49 49 49 49 49 50 50 50 50 51 51 51 51 51 51 51 51 52 52 52 53 54 50 46 44 39 35 58 55 58 59 59 58 58 45 37 36 30 27 27 27 21 21 13 11 7 13 9 14 12 10 6 2 3 5 9 6 7 5 9 6 9 8 8 6 9 13 12 12 14 14 35 45 55 59 58 61 63 64 66
50 50 51 51 50 49 49 49 49 49 49 49 50 50 50 50 50 50 50 50 51 51 51 51 51 52 52 52 53 51 46 44 35 34 40 60 56 59 58 59 59 56 45 41 31 28 27 26 25 20 18 13 11 8 12 11 12 8 8 7 3 12 8 6 6 8 9 6 8 7 8 7 5 9 10 10 14 12 21 29 39 55 58 61 61 64 65 66
50 50 50 50 50 49 49 49 49 49 49 49 50 50 50 49 50 50 50 50 50 51 51 51 51 52 52 52 53 49 44 29 29 40 50 59 61 60 59 60 60 45 42 43 31 27 26 25 24 19 18 10 9 6 11 8 13 7 3 2 5 6 9 7 8 12 8 9 4 6 6 6 9 8 8 10 12 10 16 28 36 57 61 59 61 62 65 65
49 48 48 49 49 49 48 49 49 49 49 49 49 49 49 50 50 51 50 50 50 51 51 51 51 51 52 52 49 43 40 10 31 40 62 64 64 60 58 60 58 47 41 41 32 26 26 24 22 17 16 11 7 8 8 5 14 8 7 9 11 7 8 11 13 11 10 7 6 7 8 11 7 6 8 9 10 11 12 23 35 57 57 58 61 62 64 65
50 50 49 48 48 48 48 48 49 49 49 49 49 50 50 51 50 50 50 50 51 51 51 51 51 51 51 52 46 42 37 29 8 55 62 63 64 61 59 58 57 47 42 36 30 28 24 22 19 15 13 7 7 7 6 4 11 10 3 7 6 3 5 8 10 9 9 9 8 10 11 8 5 4 6 8 11 11 20 22 43 57 54 55 59 62 64 64
48 48 49 49 49 48 48 48 49 49 49 49 49 49 49 50 51 50 50 50 50 50 50 51 51 51 52 43 35 40 35 14 42 52 62 62 61 59 56 42 41 44 39 28 24 22 19 18 15 13 9 3 4 7 5 6 8 8 4 4 8 13 12 11 10 9 9 11 11 9 8 6 4 4 5 7 9 16 30 31 47 52 53 53 59 61 64 65
47 48 48 48 48 48 48 48 48 49 49 49 49 49 50 50 50 50 50 50 50 50 50 51 51 51 52 47 37 27 13 30 43 51 56 54 49 49 40 35 41 39 32 26 22 19 17 15 12 9 3 1 4 6 8 7 3 5 5 4 3 4 7 8 8 9 9 10 9 9 7 3 3 4 5 7 8 24 30 37 44 48 51 54 57 61 64 63
48 47 48 48 49 48 48 48 48 49 49 49 49 49 49 49 49 49 50 50 50 49 50 50 51 51 46 38 36 28 18 37 43 52 50 44 43 40 37 33 37 29 24 22 18 17 15 12 10 8 5 7 4 5 5 6 7 12 6 3 3 4 6 8 8 11 12 9 8 8 5 1 2 5 2 7 16 31 32 40 48 46 53 58 59 62 63 63
49 48 47 48 49 48 47 48 48 48 48 49 49 49 49 49 49 49 49 49 49 50 50 50 51 49 41 39 30 12 16 27 38 43 48 43 41 38 37 31 31 25 21 19 17 16 12 12 7 7 6 4 5 3 3 7 3 4 11 11 10 9 10 12 13 13 10 5 5 5 3 1 2 4 2 10 27 27 34 39 47 49 52 57 59 61 62 64
49 48 48 47 48 48 48 48 48 48 48 48 48 48 49 49 49 49 49 49 50 50 50 50 50 46 42 30 18 11 17 26 34 41 43 41 40 39 36 30 28 25 22 18 16 15 13 12 9 9 4 5 4 2 5 9 7 6 8 4 4 4 4 6 6 7 8 4 4 5 3 2 2 2 3 13 27 24 34 39 47 49 50 56 58 60 60 61
47 48 47 47 48 48 47 47 48 48 48 48 48 48 49 49 49 49 49 49 50 50 50 50 49 43 42 30 25 18 13 26 33 38 38 33 34 34 31 29 28 27 25 22 18 15 16 15 14 9 6 14 5 5 10 9 8 9 7 6 3 1 0 3 5 6 6 6 4 5 -0 -3 -3 -1 -1 1 20 25 31 37 46 41 51 50 56 58 60 61
48 47 47 48 48 48 47 47 47 48 48 48 48 48 48 48 49 49 50 50 51 51 50 49 46 46 42 29 14 13 18 29 34 34 35 35 34 32 32 29 31 32 31 30 25 21 17 15 15 12 10 12 9 15 14 12 10 8 6 6 5 2 0 0 3 7 5 1 4 3 2 -6 -9 -4 -4 8 20 22 26 32 45 46 52 48 53 57 58 61
46 47 47 48 49 48 47 47 47 48 48 48 48 48 48 48 49 49 51 51 51 51 51 49 45 45 38 28 15 30 47 28 27 27 31 33 31 29 30 31 31 32 31 29 25 24 19 13 16 16 15 15 19 18 10 11 12 7 4 6 2 0 1 4 7 7 -1 8 8 3 5 -6 -4 -3 -6 12 19 22 24 30 46 53 54 49 50 52 55 58
47 47 47 48 48 48 47 47 47 47 48 48 47 48 48 48 49 51 52 51 50 51 48 45 44 41 35 21 23 43 15 8 12 21 26 26 29 26 26 27 28 30 30 28 25 21 18 14 12 13 13 14 16 13 7 8 9 9 5 14 4 -4 -1 5 7 6 3 7 6 2 -6 -9 -8 -1 2 11 15 19 24 29 40 48 49 51 49 48 50 54
46 46 47 48 48 47 46 47 47 47 47 47 48 48 47 48 49 51 50 50 47 48 45 43 40 40 33 28 30 29 27 13 16 11 24 23 24 24 25 26 27 29 29 28 25 20 17 14 13 16 14 15 14 11 10 10 10 9 4 6 7 2 -2 -1 7 6 4 3 0 4 -2 1 2 1 7 13 16 23 22 27 38 47 50 51 50 49 49 54
46 46 46 48 47 47 46 46 46 47 47 47 48 47 46 49 50 51 50 50 47 44 43 42 36 37 32 27 15 18 26 29 28 12 17 22 22 21 22 26 29 29 29 27 25 20 16 14 12 15 17 19 16 12 12 10 14 12 13 10 5 7 8 2 4 5 5 5 2 6 6 1 -0 5 7 13 13 18 24 28 39 42 48 51 51 49 50 50
47 46 46 46 46 46 47 46 47 47 47 48 48 49 50 51 48 48 46 44 40 42 34 37 35 21 11 21 11 27 27 31 34 25 19 18 20 21 24 27 28 28 26 23 22 19 15 14 18 16 14 14 12 10 9 8 6 8 6 8 4 7 4 0 1 8 7 6 3 2 4 3 3 3 4 8 11 20 21 28 39 42 44 47 49 49 46 52
47 46 45 46 46 46 47 46 46 47 47 46 43 46 49 48 49 47 45 42 34 28 22 26 28 18 15 12 11 21 29 28 27 28 28 24 18 20 23 25 26 26 23 22 21 20 15 13 14 13 9 12 15 12 12 8 9 9 10 9 5 4 3 3 4 6 7 5 5 4 6 4 5 6 8 6 13 18 21 25 33 39 40 40 44 47 48 51
47 46 45 45 46 46 46 46 46 47 48 45 45 41 36 28 25 23 34 38 36 32 24 18 22 21 13 14 17 23 23 25 24 25 27 26 18 19 21 22 24 25 22 17 23 22 15 14 13 13 9 11 15 18 20 16 20 14 11 7 3 2 2 2 6 9 8 17 6 9 5 6 6 8 8 11 13 15 20 23 29 30 33 35 40 46 45 48
46 46 45 45 45 46 46 47 46 47 48 45 44 38 28 33 33 30 33 19 22 30 28 24 20 17 18 20 23 23 22 22 19 25 28 26 20 16 20 19 21 20 21 19 22 24 20 14 13 13 10 13 19 22 19 20 25 21 14 8 6 3 2 9 10 11 10 11 9 3 3 4 9 8 7 11 10 18 21 20 24 29 29 33 34 41 48 45
46 45 46 45 46 46 46 47 47 48 46 45 42 34 25 34 33 34 34 30 23 16 18 20 19 19 18 20 22 21 16 15 17 20 29 26 23 16 18 15 19 17 17 19 22 26 24 14 12 9 15 16 20 25 26 27 28 22 16 11 8 4 4 3 13 11 10 11 11 10 8 11 15 16 15 13 8 14 15 15 15 23 28 31 33 34 48 47
46 45 45 46 46 46 46 47 48 47 46 42 34 25 31 33 32 32 35 32 28 25 20 18 19 19 17 18 20 19 10 9 11 17 30 24 24 18 16 15 14 15 14 17 19 20 14 10 9 8 13 19 25 26 26 24 19 21 18 12 7 4 3 4 12 15 17 15 21 12 13 7 10 9 10 14 12 7 11 15 17 18 19 27 32 34 44 52
46 45 45 45 46 46 46 48 44 46 44 39 25 21 31 34 36 35 38 37 30 21 23 24 22 19 23 29 25 18 14 8 4 5 27 23 22 21 17 17 14 12 12 17 19 16 11 12 19 10 13 20 23 20 21 22 15 15 20 16 13 11 9 1 13 12 13 13 12 8 5 5 9 6 5 6 10 11 12 18 16 20 22 21 27 33 38 49
45 45 45 45 46 46 47 45 45 37 30 23 33 29 34 33 36 41 39 35 25 20 20 19 23 21 26 21 23 19 17 10 7 2 20 23 24 22 18 17 15 10 10 17 19 19 11 16 20 18 20 19 14 12 17 18 14 15 14 14 13 11 12 11 12 11 11 9 10 13 11 8 8 7 9 11 10 11 16 19 15 15 15 14 16 25 31 43
45 45 45 46 46 46 44 40 40 33 28 25 34 37 35 33 45 43 34 26 20 19 19 21 22 19 22 24 21 22 16 12 11 7 8 22 19 23 19 14 14 10 9 19 20 14 15 13 21 19 20 16 14 12 15 16 14 10 13 12 12 13 13 13 8 7 8 10 16 15 13 13 9 8 11 14 16 14 19 18 19 14 19 16 17 18 31 37
45 45 46 46 46 45 43 43 36 26 25 38 36 34 34 39 44 44 36 24 15 18 20 19 18 21 25 24 23 19 17 14 11 9 4 15 18 21 20 17 11 7 11 15 16 20 24 21 24 22 18 14 10 9 12 15 13 9 11 14 14 11 11 6 6 9 11 10 5 10 13 14 9 10 9 11 15 16 15 22 30 31 32 30 26 21 22 29
45 45 45 46 47 47 46 44 40 33 33 33 34 32 37 46 41 39 32 18 24 14 21 18 21 19 15 21 20 20 18 17 14 10 9 14 15 18 16 17 15 12 10 15 17 19 18 18 19 18 15 13 12 10 11 13 13 11 10 14 12 10 9 7 8 5 9 10 8 10 14 13 11 14 8 7 12 16 25 37 38 41 42 35 32 33 31 43
45 45 46 46 46 45 46 47 42 37 36 33 33 38 44 42 39 30 25 12 18 14 16 15 15 15 15 17 18 17 17 15 18 12 11 10 11 14 18 16 15 18 13 15 16 12 19 22 22 18 15 14 14 14 14 17 16 13 14 12 11 9 10 11 11 9 11 7 9 11 11 4 7 14 24 39 35 39 38 39 40 43 42 39 39 33 34 36
45 46 46 46 41 40 40 35 37 36 32 36 40 43 44 39 35 22 16 16 14 13 13 14 13 7 5 9 13 16 13 13 15 16 6 7 9 12 18 17 17 17 18 16 17 13 16 19 19 19 20 16 14 13 13 16 15 13 15 12 6 10 11 14 16 12 10 8 10 9 10 5 5 16 37 36 40 40 41 42 43 43 40 42 43 42 39 47
46 46 47 46 43 43 39 35 38 37 37 44 46 42 37 28 23 18 14 11 10 11 9 11 9 8 4 4 9 15 12 11 13 15 12 9 12 12 15 16 18 17 15 16 15 14 13 14 18 16 21 17 16 13 11 11 13 13 14 11 12 8 16 9 11 10 8 13 11 6 5 10 11 15 34 38 37 40 40 39 43 43 42 46 46 42 45 57
47 47 47 45 44 44 42 41 42 44 45 46 45 37 33 25 15 9 13 6 12 12 9 7 7 6 5 4 9 13 14 11 13 14 11 6 3 8 9 8 10 14 14 20 19 18 15 15 16 14 17 18 17 13 12 15 15 13 13 12 9 6 11 13 11 11 12 13 9 13 12 9 11 35 40 40 42 41 44 45 47 49 50 50 48 47 54 58
47 47 45 45 44 43 43 47 44 43 46 47 41 31 29 22 16 18 17 4 9 10 8 7 5 5 4 4 9 11 12 13 12 11 9 7 2 14 6 4 9 12 17 22 15 15 15 16 13 14 15 17 16 14 10 15 14 10 8 5 10 10 12 14 11 12 11 10 16 11 16 15 12 26 41 43 43 44 43 43 48 51 52 54 53 53 54 56
47 47 48 49 47 45 46 44 47 50 49 44 33 27 20 19 13 12 8 2 4 3 3 4 4 3 6 6 7 12 13 16 13 11 11 8 8 9 10 3 8 12 12 14 24 22 12 15 16 15 14 15 14 14 12 10 9 9 7 4 7 12 14 9 19 19 19 21 18 20 17 20 29 41 43 43 42 42 43 44 47 49 49 49 52 51 54 55
47 48 49 47 45 46 45 44 48 50 48 38 29 20 14 15 8 -1 13 9 5 1 1 -1 -2 -2 4 4 8 10 15 20 14 12 11 7 5 6 7 5 4 9 16 15 23 18 15 18 12 15 15 14 14 14 12 12 14 13 6 8 7 10 9 15 18 23 25 18 13 18 21 21 37 39 40 43 42 42 43 44 46 48 50 52 54 54 55 57
45 47 47 46 45 46 46 44 44 48 44 38 26 16 17 12 9 7 15 9 9 1 -5 -6 -3 -5 6 4 7 7 16 16 19 12 15 8 11 5 5 7 5 7 11 16 20 14 19 18 11 15 14 14 14 14 13 12 12 14 13 7 7 7 12 19 13 18 17 13 14 14 11 23 21 26 37 40 44 45 43 45 46 49 50 50 52 55 56 57
46 47 45 42 43 45 46 45 47 45 37 30 26 26 13 8 7 1 12 1 6 6 -3 -4 6 -3 5 6 4 6 15 15 22 15 14 10 16 9 7 9 11 11 11 11 15 21 16 15 12 12 15 14 14 13 12 12 12 11 14 13 9 11 10 19 18 15 15 15 11 11 11 15 22 32 30 40 43 45 46 45 47 49 49 51 53 54 54 55
47 45 41 39 40 45 46 48 48 37 31 23 22 16 10 -0 12 7 12 11 5 1 1 -4 3 4 -1 9 8 6 11 14 18 21 15 15 14 15 13 9 11 11 12 11 13 21 26 18 17 15 13 12 12 12 16 12 11 11 11 13 13 17 22 14 14 14 18 14 16 17 10 14 32 37 39 41 45 46 45 46 47 48 50 51 51 52 53 54
45 44 41 46 43 46 48 49 43 35 24 16 12 13 8 1 4 9 9 10 13 9 7 12 4 7 4 2 6 14 11 10 14 21 17 22 17 24 19 14 11 12 13 12 9 10 22 28 15 16 13 12 12 14 11 10 13 10 11 13 15 23 20 18 28 15 14 15 12 12 11 29 39 40 43 42 46 47 47 48 48 48 50 52 54 54 54 55
46 43 41 49 45 48 48 43 37 26 21 20 20 14 9 4 21 20 19 21 15 17 17 18 17 12 8 13 7 6 11 13 14 23 18 21 17 24 22 25 19 18 13 11 9 15 19 23 18 22 14 13 13 11 8 7 8 10 12 13 10 16 15 15 19 19 19 17 18 14 16 37 41 43 42 42 45 47 48 48 50 52 51 52 53 54 55 55
43 38 42 48 50 50 46 34 33 32 23 17 22 15 21 28 17 18 24 23 19 19 20 17 17 16 17 14 9 3 12 13 11 13 16 24 40 29 37 29 26 23 18 17 16 21 26 27 22 18 20 16 12 11 12 9 16 13 10 9 7 14 16 31 16 17 17 15 17 16 25 26 44 42 42 46 48 50 50 49 49 52 51 52 52 53 53 53
42 39 49 49 51 48 45 38 35 31 29 28 26 25 23 22 20 21 21 21 20 18 20 20 18 17 15 11 11 13 14 17 13 14 15 17 34 35 34 32 30 28 24 23 18 23 30 23 21 15 16 18 20 19 20 19 19 17 17 18 14 15 15 18 19 29 22 21 20 17 15 34 44 44 48 47 48 48 49 49 50 49 50 51 51 51 51 52
37 43 43 46 51 47 42 29 22 21 23 27 27 22 23 21 20 21 17 20 19 22 20 20 19 15 18 17 16 15 16 21 17 15 18 20 33 34 33 32 32 28 25 39 34 31 24 28 23 20 17 17 23 19 19 19 16 18 19 21 16 16 19 25 31 31 21 23 26 25 16 27 45 47 46 47 47 46 46 47 47 47 48 49 49 50 50 51
39 42 41 44 47 47 38 35 30 21 26 29 31 25 23 24 20 22 23 21 19 21 23 24 21 22 18 17 16 14 13 16 23 17 20 28 37 31 32 32 34 35 34 39 41 41 26 29 24 18 18 17 18 21 20 20 19 19 17 17 20 17 27 27 21 24 19 22 18 19 25 39 45 46 45 44 46 45 45 46 46 46 46 47 48 49 49 50
38 31 39 37 41 39 36 35 33 30 26 30 27 27 25 26 25 24 24 23 22 22 23 24 23 23 21 19 20 16 12 13 16 24 20 21 28 31 32 33 34 36 44 45 43 37 32 33 31 27 25 21 29 31 30 27 36 19 19 24 29 26 23 27 27 21 18 22 20 27 32 39 41 44 43 43 45 44 44 44 44 45 46 46 46 47 47 47
35 29 29 27 35 34 34 32 27 26 26 31 26 28 29 25 24 23 24 26 23 23 23 23 22 25 25 21 25 22 16 13 11 18 25 27 35 39 33 35 36 38 43 40 37 37 35 29 32 35 37 31 27 28 29 30 27 31 21 27 27 28 28 32 27 22 29 27 19 38 41 39 41 44 44 43 42 42 43 43 44 44 44 44 45 45 45 45
32 33 29 39 29 26 26 26 28 29 31 31 30 32 28 28 26 28 25 23 23 24 23 23 21 18 17 20 25 26 23 20 19 23 17 23 26 37 36 34 35 37 36 33 37 37 36 30 34 33 36 36 27 27 32 33 33 37 35 36 35 36 36 35 32 36 35 25 17 38 41 41 40 40 41 41 41 41 41 42 43 43 43 43 43 42 42 43
37 35 32 36 28 31 34 31 32 30 31 28 29 31 30 29 29 28 28 27 19 25 19 26 25 15 16 17 21 24 25 24 23 30 34 33 31 35 39 36 35 33 33 38 37 41 39 34 38 38 39 33 30 30 32 34 33 32 35 34 35 38 40 41 41 39 38 38 35 40 42 40 39 39 40 40 41 40 40 41 41 41 41 41 41 40 40 41
36 32 31 31 35 31 33 33 32 29 30 30 27 29 28 29 30 28 25 26 27 26 22 23 22 20 16 18 19 22 32 33 37 31 39 36 38 36 41 40 35 34 31 36 38 43 36 32 40 37 32 33 34 29 28 35 39 34 34 34 35 37 37 38 40 41 43 41 42 41 39 37 38 39 39 40 40 39 39 38 39 40 40 40 39 39 39 39
40 38 38 24 24 29 30 30 29 28 25 25 25 29 30 24 29 30 31 27 30 29 25 26 24 25 22 19 24 25 25 30 32 33 33 33 35 36 35 38 29 36 34 34 38 41 39 33 37 35 29 29 34 32 30 34 38 35 36 36 36 36 37 37 36 40 41 39 41 41 38 36 37 38 39 38 38 38 37 37 38 38 38 38 38 38 38 38
39 38 38 35 26 29 27 28 30 25 21 29 30 26 26 25 21 20 27 26 23 22 26 25 28 28 29 28 27 27 27 26 27 26 26 26 29 33 29 29 29 31 33 36 41 39 37 35 32 31 29 27 33 33 31 32 36 32 32 35 37 36 36 37 38 40 40 41 38 33 34 37 37 38 36 36 37 36 37 37 37 37 37 37 37 38 38 38